TimeEST,TemperatureF,Dew PointF,Humidity,Sea Level PressureIn,VisibilityMPH,Wind Direction,Wind SpeedMPH,Gust SpeedMPH,PrecipitationIn,Events,Conditions,WindDirDegrees,DateUTC
12:53 AM,28.0,21.0,75,30.15,10.0,Calm,Calm,-,N/A,,Clear,0,2013-02-04 05:53:00
1:53 AM,27.0,19.9,75,30.15,10.0,Calm,Calm,-,N/A,,Clear,0,2013-02-04 06:53:00
2:53 AM,26.1,19.9,78,30.11,10.0,Calm,Calm,-,N/A,,Clear,0,2013-02-04 07:53:00
3:53 AM,26.1,19.9,78,30.11,10.0,Calm,Calm,-,N/A,,Clear,0,2013-02-04 08:53:00
5:53 AM,25.0,21.0,85,30.11,9.0,NE,3.5,-,N/A,,Clear,50,2013-02-04 10:53:00
6:53 AM,24.1,19.9,84,30.13,8.0,East,3.5,-,N/A,,Scattered Clouds,80,2013-02-04 11:53:00
7:53 AM,25.0,21.0,85,30.14,8.0,Calm,Calm,-,N/A,,Partly Cloudy,0,2013-02-04 12:53:00
8:53 AM,27.0,23.0,85,30.14,7.0,Calm,Calm,-,N/A,,Scattered Clouds,0,2013-02-04 13:53:00
9:53 AM,28.9,24.1,82,30.14,10.0,SW,3.5,-,N/A,,Scattered Clouds,230,2013-02-04 14:53:00
10:53 AM,33.1,24.1,70,30.13,10.0,Calm,Calm,-,N/A,,Scattered Clouds,0,2013-02-04 15:53:00
11:53 AM,37.9,24.1,57,30.11,10.0,Calm,Calm,-,N/A,,Partly Cloudy,0,2013-02-04 16:53:00
12:53 PM,41.0,23.0,49,30.06,10.0,Calm,Calm,-,N/A,,Clear,0,2013-02-04 17:53:00
1:53 PM,45.0,23.0,42,30.04,10.0,Calm,Calm,-,N/A,,Clear,0,2013-02-04 18:53:00
2:53 PM,46.0,25.0,44,30.03,10.0,SW,10.4,-,N/A,,Partly Cloudy,220,2013-02-04 19:53:00
3:53 PM,46.9,25.0,42,30.00,10.0,SSW,8.1,-,N/A,,Scattered Clouds,210,2013-02-04 20:53:00
4:53 PM,46.9,27.0,46,29.99,10.0,SSW,6.9,-,N/A,,Scattered Clouds,210,2013-02-04 21:53:00
5:53 PM,44.1,28.0,53,29.98,10.0,SW,5.8,-,N/A,,Mostly Cloudy,230,2013-02-04 22:53:00
6:53 PM,42.1,27.0,55,29.99,10.0,South,4.6,-,N/A,,Partly Cloudy,190,2013-02-04 23:53:00
7:53 PM,43.0,28.0,56,29.98,10.0,South,8.1,-,N/A,,Mostly Cloudy,190,2013-02-05 00:53:00
8:53 PM,42.1,28.0,58,29.98,10.0,SW,8.1,-,N/A,,Overcast,220,2013-02-05 01:53:00
9:53 PM,44.1,27.0,51,29.98,10.0,West,5.8,-,N/A,,Overcast,270,2013-02-05 02:53:00
10:53 PM,45.0,26.1,48,29.97,10.0,WSW,9.2,-,N/A,,Overcast,250,2013-02-05 03:53:00
11:53 PM,45.0,26.1,48,29.96,10.0,West,9.2,-,N/A,,Overcast,260,2013-02-05 04:53:00